Weather History for Northeast Philadelphia, PA

Change the Weather History Date:

Thursday, February 21, 2013

  Actual Average Record
Temperature  
Mean Temperature 30 °F -  
Max Temperature 35 °F 42 °F 68 °F (1997)
Min Temperature 24 °F 26 °F 17 °F (2003)
Degree Days  
Heating Degree Days 36    
Moisture  
Dew Point 12 °F    
Average Humidity 50    
Maximum Humidity 63    
Minimum Humidity 42    
Precipitation  
Precipitation 0.00 in - - ()
Sea Level Pressure  
Sea Level Pressure 30.15 in    
Wind  
Wind Speed 14 mph (NW)    
Max Wind Speed 21 mph    
Max Gust Speed 30 mph    
Visibility 10 miles    
Events      
Averages and records for this station are not official NWS values.
T = Trace of Precipitation, MM = Missing Value Source: NWS Daily Summary

Daily Weather History Graph

Daily Weather History Graph

Search for Another Location

Airport:

Trip Planner

Search our weather history database for the weather conditions in past years. The results will help you decide how hot, cold, wet, or windy it might be!

Date:

Astronomy

Feb. 21, 2013 Rise Set
Actual Time 6:44 AM EST 5:43 PM EST
Civil Twilight 6:17 AM EST 6:10 PM EST
Nautical Twilight 5:45 AM EST 6:42 PM EST
Astronomical Twilight 5:14 AM EST 7:13 PM EST
Moon 1:55 PM EST (2/21) 3:47 AM EST (2/21)
Length of Visible Light 11h 53m
Length of Day
10h 58m
Waxing Gibbous, 83% of the Moon is Illuminated
Feb 21
Waxing Gibbous
Feb 25
Full
Mar 4
Last Quarter
Mar 11
New
Mar 19
First Quarter

Hourly Weather History & Observations

Time (EST) Temp. Windchill Dew Point Humidity Pressure Visibility Wind Dir Wind Speed Gust Speed Precip Events Conditions
12:54 AM 24.1 °F 13.1 °F 8.1 °F 51% 30.09 in 10.0 mi WNW 11.5 mph - N/A   Clear
1:54 AM 24.1 °F 14.4 °F 10.0 °F 55% 30.08 in 10.0 mi WNW 9.2 mph 19.6 mph N/A   Overcast
2:54 AM 24.1 °F 13.1 °F 9.0 °F 53% 30.06 in 10.0 mi WNW 11.5 mph 20.7 mph N/A   Overcast
3:54 AM 25.0 °F 13.6 °F 10.0 °F 53% 30.08 in 10.0 mi WNW 12.7 mph - N/A   Overcast
4:54 AM 25.0 °F 10.6 °F 10.9 °F 55% 30.07 in 10.0 mi WNW 20.7 mph 26.5 mph N/A   Overcast
5:54 AM 25.0 °F 13.1 °F 10.9 °F 55% 30.09 in 10.0 mi NW 13.8 mph 23.0 mph N/A   Overcast
6:54 AM 25.0 °F 15.5 °F 10.9 °F 55% 30.10 in 10.0 mi WNW 9.2 mph - N/A   Overcast
7:54 AM 26.1 °F 14.5 °F 10.0 °F 51% 30.11 in 10.0 mi WNW 13.8 mph 18.4 mph N/A   Overcast
8:54 AM 27.0 °F 13.5 °F 10.9 °F 51% 30.12 in 10.0 mi WNW 19.6 mph 26.5 mph N/A   Overcast
9:54 AM 28.0 °F 17.0 °F 12.0 °F 51% 30.14 in 10.0 mi WNW 13.8 mph 27.6 mph N/A   Overcast
10:54 AM 30.0 °F 18.3 °F 12.0 °F 47% 30.15 in 10.0 mi NW 17.3 mph 28.8 mph N/A   Overcast
11:54 AM 32.0 °F 20.8 °F 12.0 °F 44% 30.12 in 10.0 mi WNW 17.3 mph 29.9 mph N/A   Mostly Cloudy
12:54 PM 33.1 °F 22.2 °F 12.0 °F 42% 30.10 in 10.0 mi WNW 17.3 mph 21.9 mph N/A   Partly Cloudy
1:54 PM 35.1 °F 25.2 °F 14.0 °F 42% 30.10 in 10.0 mi NW 16.1 mph 26.5 mph N/A   Clear
2:54 PM 35.1 °F 24.5 °F 14.0 °F 42% 30.10 in 10.0 mi WNW 18.4 mph 29.9 mph N/A   Partly Cloudy
3:54 PM 35.1 °F 25.5 °F 14.0 °F 42% 30.12 in 10.0 mi NW 15.0 mph 26.5 mph N/A   Clear
4:54 PM 35.1 °F 25.5 °F 14.0 °F 42% 30.14 in 10.0 mi NW 15.0 mph 20.7 mph N/A   Clear
5:54 PM 34.0 °F 27.2 °F 14.0 °F 44% 30.15 in 10.0 mi NNW 8.1 mph - N/A   Clear
6:54 PM 32.0 °F 23.6 °F 14.0 °F 48% 30.23 in 10.0 mi NNW 10.4 mph 17.3 mph N/A   Clear
7:54 PM 30.9 °F 19.4 °F 15.1 °F 52% 30.28 in 10.0 mi NNW 17.3 mph 23.0 mph N/A   Clear
8:54 PM 30.0 °F 17.9 °F 15.1 °F 54% 30.27 in 10.0 mi NNW 18.4 mph 25.3 mph N/A   Clear
9:54 PM 28.0 °F 16.1 °F 15.1 °F 58% 30.29 in 10.0 mi North 16.1 mph - N/A   Clear
10:54 PM 26.1 °F 14.5 °F 14.0 °F 60% 30.32 in 10.0 mi North 13.8 mph - N/A   Clear
11:54 PM 25.0 °F 15.5 °F 14.0 °F 63% 30.33 in 10.0 mi NNW 9.2 mph - N/A   Clear